RADUGA 32 1 23448U 94087A 09183.15165166 -.00000127 00000-0 10000-3 0 1651 2 23448 010.2636 052.2245 0005648 119.0701 240.9405 01.00282984 70839 RADUGA 1-4 1 25642U 99010A 09183.10611511 -.00000354 00000-0 10000-3 0 2681 2 25642 008.9091 068.8459 0002161 146.5657 213.3512 01.00240135 37870 RADUGA 1-5 1 26477U 00049A 09183.72649300 .00000070 00000-0 10000-3 0 5998 2 26477 006.5391 066.9583 0000838 333.8659 196.4907 01.00322891 32383 RADUGA 1-6 1 26936U 01045A 09180.40444039 -.00000145 00000-0 10000-3 0 8840 2 26936 005.7806 071.9502 0015673 032.8693 327.0817 00.97745691 28018 RADUGA 1-7 1 28194U 04010A 09183.73673046 -.00000184 00000-0 10000-3 0 1761 2 28194 003.8638 084.7404 0001651 054.8598 131.2271 01.00282118 19294 RADUGA 1M-1 1 32373U 07058A 09183.71493383 -.00000037 +00000-0 +10000-3 0 04694 2 32373 000.0245 250.4912 0003181 219.5058 138.2297 01.00272055006625